{"data":{"norad_id":54077,"intl_designator":"2022-136AC","name":"STARLINK-5171","alt_names":[],"object_type":"PAYLOAD","status":"ACTIVE","operator":null,"country":"US","launch_date":"2022-10-20","launch_site_code":"AFETR","launch_vehicle":null,"mission":null,"orbit_class":"UNKNOWN","rcs_meters":null,"size_class":null,"mass_kg":null,"dimensions":null,"purposes":["comms"],"wikipedia_slug":null,"has_3d_model":false,"image_url":null,"decayed_at":null,"tle_current":{"epoch":"2026-05-24T23:20:46.655808Z","epoch_age_seconds":70700,"freshness":"FRESH","line1":"1 54077U 22136AC  26144.97276222  .00000201  00000+0  30707-4 0  9994","line2":"2 54077  53.2112 337.3080 0001182  90.9302 269.1826 15.08836409198701","mean_motion":15.08836409,"eccentricity":0.0001182,"inclination_deg":53.2112,"raan_deg":337.308,"arg_perigee_deg":90.9302,"mean_anomaly_deg":269.1826,"bstar":3.0707e-5,"rev_number":19870,"period_min":95.437781817207,"perigee_km":538.9366704769,"apogee_km":540.57205999564,"semimajor_km":6917.8913652363,"source":"CELESTRAK","updated_at":"2026-05-25T13:38:17.652673Z"}}}